Flag for South Korea Weather past 2 weeks in Seoul, South Korea

Now
37 °F

Mostly cloudy.


Feels Like: 32 °F
Forecast: 27 / 44 °F
Wind: 7 mph from South

Location: Seoul / Kimp'O International Airport

Current Time: Mar 3, 2015 at 6:07:57 AM

Latest Report: Mar 3, 2015 at 5:00 AM


Visibility: 4 mi

Pressure: 29.98 "Hg

Humidity: 33%

Dew point: 10 °F

Location of SeoulLocation

Historic Weather in Seoul — Graph

°F

Seoul temperature yesterday

Maximum temperature yesterday: 48 °F (at 3:00 PM)
Minimum temperature yesterday: 25 °F (at 5:00 AM)
Average temperature yesterday: 37 °F

Past Weeks' High & Low Weather Summary

 TemperatureHumidityPressure
High52 °F (Feb 25, 2:00 PM)93% (Feb 22, 5:00 AM)30.42 "Hg (Feb 22, 5:00 AM)
Low23 °F (Feb 27, 5:00 AM)15% (Feb 25, 2:00 PM)29.89 "Hg (Feb 16, 2:00 PM)
Average36 °F55%30.14 "Hg
* Reported Feb 16 5:00 AM — Mar 3 5:00 AM, Seoul, Weather by CustomWeather, © 2015

Note: Actual official high and low records may vary slightly from our data, if they occured in-between our weather recording intervals... More about our weather records

Advertising

Seoul weather history for previous 24 hours

 ConditionsComfort  
Time TempWeatherWind HumidityBarometerVisibility
5:00 AM
Tue, Mar 3
37 °FMostly cloudy.7 mph33%29.98 "Hg4 mi
4:00 AM37 °FMostly cloudy.5 mph30%29.98 "Hg4 mi
3:00 AM37 °FMostly cloudy.6 mph33%30.01 "Hg4 mi
2:00 AM39 °FMostly cloudy.6 mph28%30.01 "Hg4 mi
1:00 AM39 °FOvercast.8 mph30%30.04 "Hg4 mi
12:00 AM37 °FOvercast.6 mph35%30.04 "Hg5 mi
11:00 PM
Mon, Mar 2
37 °FClear.7 mph38%30.04 "Hg10 mi
10:00 PM39 °FClear.5 mph28%30.04 "Hg10 mi
9:00 PM41 °FPassing clouds.7 mph24%30.07 "HgN/A
8:00 PM39 °FClear.7 mph33%30.04 "Hg10 mi
7:00 PM39 °FClear.7 mph39%30.04 "Hg10 mi
6:00 PM43 °FSunny.8 mph34%30.04 "Hg10 mi
5:00 PM46 °FSunny.8 mph27%30.04 "Hg10 mi
4:00 PM46 °FPassing clouds.10 mph20%30.04 "HgN/A
3:00 PM48 °FPassing clouds.10 mph23%30.07 "HgN/A
2:00 PM46 °FPassing clouds.12 mph25%30.09 "HgN/A
1:00 PM45 °FSunny.12 mph31%30.12 "Hg10 mi
12:00 PM45 °FSunny.13 mph27%30.12 "Hg10 mi
11:00 AM43 °FSunny.9 mph36%30.15 "Hg10 mi
10:00 AM39 °FSunny.7 mph48%30.15 "Hg10 mi
9:00 AM36 °FClear.6 mph60%30.15 "Hg5 mi
8:00 AM30 °FClear.7 mph75%30.12 "Hg5 mi
7:00 AM25 °FClear.3 mph69%30.12 "Hg5 mi
6:00 AM25 °FClear.2 mph69%30.12 "Hg5 mi
Weather by CustomWeather, © 2015

See weather overviewHow to use our weather pages